TimeCST,TemperatureF,Dew PointF,Humidity,Sea Level PressureIn,VisibilityMPH,Wind Direction,Wind SpeedMPH,Gust SpeedMPH,PrecipitationIn,Events,Conditions,WindDirDegrees,DateUTC
12:53 AM,54.0,43.0,66,30.10,10.0,NE,3.5,-,N/A,,Clear,50,2013-02-14 06:53:00
1:53 AM,54.0,43.0,66,30.09,10.0,Calm,Calm,-,N/A,,Clear,0,2013-02-14 07:53:00
2:53 AM,51.1,43.0,74,30.08,10.0,Calm,Calm,-,N/A,,Clear,0,2013-02-14 08:53:00
3:53 AM,48.9,42.1,77,30.08,10.0,Calm,Calm,-,N/A,,Clear,0,2013-02-14 09:53:00
4:53 AM,46.9,41.0,80,30.08,10.0,NW,4.6,-,N/A,,Clear,320,2013-02-14 10:53:00
5:53 AM,48.0,41.0,77,30.09,10.0,NNW,4.6,-,0.00,,Clear,330,2013-02-14 11:53:00
6:53 AM,46.9,41.0,80,30.12,10.0,NW,3.5,-,N/A,,Clear,310,2013-02-14 12:53:00
7:53 AM,48.0,41.0,77,30.13,10.0,WNW,4.6,-,N/A,,Clear,290,2013-02-14 13:53:00
8:53 AM,55.0,43.0,64,30.15,10.0,Calm,Calm,-,N/A,,Clear,0,2013-02-14 14:53:00
9:53 AM,62.1,45.0,53,30.16,10.0,Calm,Calm,-,N/A,,Clear,0,2013-02-14 15:53:00
10:53 AM,64.9,44.1,47,30.16,10.0,Calm,Calm,-,N/A,,Clear,0,2013-02-14 16:53:00
11:53 AM,68.0,41.0,37,30.14,10.0,SE,4.6,-,N/A,,Clear,140,2013-02-14 17:53:00
12:53 PM,72.0,37.9,29,30.10,10.0,Variable,3.5,-,N/A,,Clear,0,2013-02-14 18:53:00
1:53 PM,73.0,36.0,26,30.06,10.0,SSE,4.6,-,N/A,,Clear,150,2013-02-14 19:53:00
2:53 PM,75.0,33.1,22,30.02,10.0,ENE,5.8,-,N/A,,Clear,70,2013-02-14 20:53:00
3:53 PM,75.0,32.0,21,30.02,10.0,Calm,Calm,-,N/A,,Clear,0,2013-02-14 21:53:00
4:53 PM,75.0,32.0,21,30.01,10.0,Variable,5.8,-,N/A,,Clear,0,2013-02-14 22:53:00
5:53 PM,73.0,34.0,24,30.01,10.0,ESE,10.4,-,N/A,,Clear,110,2013-02-14 23:53:00
6:53 PM,66.0,37.9,36,30.02,10.0,East,10.4,-,N/A,,Clear,90,2013-02-15 00:53:00
7:53 PM,63.0,41.0,45,30.05,10.0,ESE,11.5,-,N/A,,Clear,120,2013-02-15 01:53:00
8:53 PM,60.1,43.0,53,30.06,10.0,ESE,8.1,-,N/A,,Clear,120,2013-02-15 02:53:00
9:53 PM,57.0,44.1,62,30.07,10.0,SE,5.8,-,N/A,,Clear,130,2013-02-15 03:53:00
10:53 PM,54.0,44.1,69,30.07,10.0,SE,4.6,-,N/A,,Clear,140,2013-02-15 04:53:00
11:53 PM,54.0,43.0,66,30.06,10.0,ESE,4.6,-,N/A,,Clear,110,2013-02-15 05:53:00